Welcome to the New NWS' Forecast!
Most changes are behind the scenes, but click here for differences you might notice.
Latest weather observations around

Bullhead City, Laughlin/Bullhead International Airport (KIFP)

Using English Units (Switch to International System of Units)
Date/ Time (MST) Wind (mph) Vis. (mi) Weather Sky Cond. Temp (°F) Rel. Humidity Wind Chill (°F) Heat Index (°F) Pressure Precip. (in)
Air Dwpt 6 hour Altimeter (inHg) Sea level (inHg) 1 hr 3 hr 6 hr
Max Min
Sep 24 09:55 NNW 14 10 Clear CLR 70 36     28%     29.95        
Sep 24 09:35 N 15 10 Clear CLR 70 36     28%     29.95        
Sep 24 09:15 NNW 18 10 Clear CLR 70 37     31%     29.94        
Sep 24 08:55 N 16 10 Clear CLR 68 37     32%     29.94        
Sep 24 08:35 N 13 10 Clear CLR 66 37     35%     29.94        
Sep 24 08:15 N 13 10 Clear CLR 66 37     35%     29.94        
Sep 24 07:55 N 14 10 Clear CLR 64 39     39%     29.94        
Sep 24 07:35 NNE 11 10 Clear CLR 64 37     37%     29.93        
Sep 24 07:15 NNE 11 10 Clear CLR 64 37     37%     29.93        
Sep 24 06:55 N 11 10 Clear CLR 64 37     37%     29.93        
Sep 24 06:35 NNE 16 10 Clear CLR 64 37     37%     29.92        
Sep 24 06:15 NNE 15 10 Clear CLR 64 37     37%     29.91        
Sep 24 05:55 NNE 13 10 Clear CLR 64 37     37%     29.91        
Sep 24 05:35 NNE 13 10 Clear CLR 64 36     34%     29.9        
Sep 24 05:15 NNE 15 10 Clear CLR 64 34     32%     29.89        
Sep 24 04:55 NNE 15 10 Clear CLR 64 34     32%     29.89        
Sep 24 04:35 NNE 14 10 Clear CLR 66 34     30%     29.89        
Sep 24 04:15 NNE 14 10 Clear CLR 64 34     32%     29.89        
Sep 24 03:55 N 13 10 Clear CLR 66 34     30%     29.89        
Sep 24 03:35 N 11 10 Clear CLR 66 34     30%     29.89        
Sep 24 03:15 NNE 17 10 Clear CLR 66 32     28%     29.89        
Sep 24 02:55 NNE 16 10 Clear CLR 66 32     28%     29.88        
Sep 24 02:35 N 14 10 Clear CLR 66 32     28%     29.88        
Sep 24 02:15 NNE 17 10 Clear CLR 68 32     26%     29.88        
Sep 24 01:55 NNE 16 10 Clear CLR 68 32     26%     29.88        
Sep 24 01:35 NNE 16 10 Clear CLR 68 30     24%     29.87        
Sep 24 01:15 NNE 16 10 Clear CLR 68 30     24%     29.87        
Sep 24 00:35 NNE 16 10 Clear CLR 70 28     21%     29.86        
Sep 24 00:15 NNE 16 10 Clear CLR 70 28     21%     29.85        
Sep 23 23:55 NNE 21 10 Clear and Windy CLR 72 27     19%   69 29.85        
Sep 23 23:35 N 17 10 Clear CLR 72 27     19%   69 29.85        
Sep 23 23:15   10 Clear CLR 72 27     19%   69 29.84        
Sep 23 22:55   10 Clear CLR 72 27     19%   69 29.83        
Sep 23 22:35 NNE 21 10 Clear and Windy CLR 73 25     16%   71 29.82        
Sep 23 22:15   10 Clear CLR 73 23     15%   71 29.82        
Sep 23 21:55 NNW 20 10 Clear and Windy CLR 73 25     16%   71 29.8        
Sep 23 21:35 NNW 18 10 Clear CLR 73 25     16%   71 29.79        
Sep 23 21:15 NNW 14 10 Clear CLR 75 25     15%   73 29.78        
Sep 23 20:55 N 14 10 Clear CLR 75 25     15%   73 29.78        
Sep 23 20:35 N 8 10 Clear CLR 77 28     17%   75 29.78        
Sep 23 20:15 N 11 10 Clear CLR 77 28     17%   75 29.77        
Sep 23 19:55 NNW 11 10 Clear CLR 77 30     18%   75 29.76        
Sep 23 19:35 NNW 13 10 Clear CLR 79 25     14%   77 29.75        
Sep 23 19:15 N 13 10 Clear CLR 79 30     17%   77 29.75        
Sep 23 18:55 NNW 16 10 Clear CLR 79 30     17%   77 29.74        
Sep 23 18:35 NNW 15 10 Clear CLR 79 27     15%   77 29.73        
Sep 23 18:15 N 14 10 Clear CLR 81 27     14%   79 29.73        
Sep 23 17:55 NNW 17 10 Clear CLR 81 25     13%   79 29.72        
Sep 23 17:35 N 16 10 Clear CLR 82 23     11%   80 29.72        
Sep 23 17:15 NNW 10 10 Clear CLR 82 23     11%   80 29.72        
Sep 23 16:55 N 11 10 Clear CLR 82 25     12%   80 29.72        
Sep 23 16:35 N 15 10 Clear CLR 82 25     12%   80 29.72        
Sep 23 16:15 NNW 14 10 Clear CLR 82 25     12%   80 29.72        
Sep 23 15:55 NNW 10 10 Clear CLR 82 25     12%   80 29.73        
Sep 23 15:35 NNW 15 10 Clear CLR 82 25     12%   80 29.73        
Sep 23 15:15 N 11 10 Clear CLR 82 25     12%   80 29.73        
Sep 23 14:55 N 9 10 Clear CLR 82 25     12%   80 29.74        
Sep 23 14:35 N 14 10 Clear CLR 81 27     14%   79 29.74        
Sep 23 14:15 NNW 14 10 Clear CLR 82 28     14%   80 29.74        
Sep 23 13:55 NNW 16 10 Clear CLR 81 28     15%   79 29.75        
Sep 23 13:35 NNW 18 10 Clear CLR 81 28     15%   79 29.75        
Sep 23 13:15 NNW 20 10 Clear and Windy CLR 79 30     17%   77 29.76        
Sep 23 12:55 N 17 10 Clear CLR 79 30     17%   77 29.76        
Sep 23 12:35 NNW 18 10 Clear CLR 79 30     17%   77 29.77        
Sep 23 12:15 NNW 16 10 Clear CLR 77 30     18%   75 29.77        
Sep 23 11:55 NNW 20 10 Clear and Windy CLR 77 32     19%   75 29.77        
Sep 23 11:35 NNW 23 10 Clear and Windy CLR 77 32     19%   75 29.78        
Sep 23 11:15 NNW 22 10 Clear and Windy CLR 75 32     21%   73 29.78        
Sep 23 10:55   10 Clear CLR 75 32     21%   73 29.78        
Sep 23 10:35   10 Clear CLR 75 32     21%   73 29.78        
Sep 23 10:15   10 Clear CLR 73 32     22%   71 29.78        
Sep 23 09:55 N 20 10 Clear and Windy CLR 73 34     23%   72 29.78        
Sep 23 09:35 N 18 10 Clear CLR 73 34     23%   72 29.78        
Sep 23 09:15 NNW 20 10 Clear and Windy CLR 72 34     25%   70 29.78        
Sep 23 08:55 N 22 10 Clear and Windy CLR 72 34     25%   70 29.77        
Sep 23 08:35 N 21 10 Clear and Windy CLR 72 32     23%   70 29.76        
Sep 23 08:15 N 17 10 Clear CLR 70 34     26%     29.76        
Sep 23 07:55 N 14 10 Clear CLR 70 36     28%     29.75        
Sep 23 07:35 NNE 13 10 Clear   68 34     28%     29.74        
Sep 23 07:15 NNE 16 10 Clear   68 36     30%     29.74        
Sep 23 06:55 NNE 14 10 Clear   68 36     30%     29.73        
Sep 23 06:35 N 16 10 Clear CLR 68 36     30%     29.72        
Sep 23 06:15 NNE 15 10 Clear CLR 68 34     28%     29.71        
Sep 23 05:55 NNE 15 10 Clear CLR 70 34     26%     29.71        
Sep 23 05:35 NNE 13 10 Clear CLR 70 34     26%     29.71        
Sep 23 05:15 NNE 16 10 Clear CLR 70 32     25%     29.7        
Sep 23 04:55 NNE 14 10 Clear CLR 70 30     23%     29.7        
Sep 23 04:35 N 13 10 Clear CLR 70 28     21%     29.7        
Sep 23 04:15 N 13 10 Clear CLR 72 27     19%   69 29.69        
Sep 23 03:55 N 15 10 Clear CLR 72 28     20%   69 29.69        
Sep 23 03:35 NNE 16 10 Clear CLR 72 28     20%   69 29.68        
Sep 23 03:15 NNE 15 10 Clear CLR 72 30     22%   69 29.68        
Sep 23 02:55 N 11 10 Clear CLR 72 25     17%   69 29.68        
Sep 23 02:35 N 8 10 Clear CLR 72 23     16%   69 29.68        
Sep 23 02:15 NE 7 10 Clear CLR 70 23     17%     29.68        
Sep 23 01:55 NE 3 10 Clear CLR 72 23     16%   69 29.69        
Sep 23 01:35 NE 6 10 Clear CLR 72 23     16%   69 29.69        
Sep 23 01:15 Calm 10 Clear CLR 70 30     23%     29.69        
Sep 23 00:55 NE 7 10 Clear CLR 72 25     17%   69 29.69        
Sep 23 00:35 NNE 7 10 Clear CLR 72 25     17%   69 29.68        
Sep 23 00:15 NE 8 10 Clear CLR 72 23     16%   69 29.68        
Sep 22 23:55 NE 5 10 Clear CLR 70 23     17%     29.68        
Sep 22 23:35 ENE 7 10 Clear CLR 70 21     16%     29.68        
Sep 22 23:15 Calm 10 Clear CLR 70 21     16%     29.69        
Sep 22 22:55 NE 3 10 Clear CLR 70 23     17%     29.69        
Sep 22 22:35 ENE 6 10 Clear CLR 72 23     16%   69 29.69        
Sep 22 22:15 Calm 10 Clear CLR 72 23     16%   69 29.69        
Sep 22 21:55 SW 5 10 Clear CLR 72 23     16%   69 29.69        
Sep 22 21:35 NE 5 10 Clear CLR 73 21     14%   71 29.68        
Sep 22 21:15 Calm 10 Clear CLR 73 21     14%   71 29.68        
Sep 22 20:55 3 10 Clear CLR 75 21     13%   73 29.68        
Sep 22 20:35 Calm 10 Clear CLR 77 23     13%   75 29.68        
Sep 22 20:15 Calm 10 Clear CLR 77 23     13%   75 29.68        
Sep 22 19:55 Calm 10 Clear CLR 77 23     13%   75 29.68        
Sep 22 19:35 SSW 5 10 Clear CLR 79 23     13%   77 29.67        
Sep 22 19:15 Calm 10 Clear CLR 79 23     13%   77 29.67        
Sep 22 18:55 Calm 10 Clear CLR 81 21     11%   79 29.67        
Sep 22 18:35 Calm 10 Clear CLR 81 21     11%   79 29.67        
Sep 22 18:15 SW 5 10 Clear CLR 82 21     10%   80 29.67        
Sep 22 17:55 SSW 5 10 Clear CLR 82 21     10%   80 29.67        
Sep 22 17:35 3 10 Clear CLR 82 21     10%   80 29.68        
Sep 22 17:15 WSW 6 10 Clear CLR 82 21     10%   80 29.68        
Sep 22 16:55 Calm 10 Clear CLR 82 19     10%   79 29.68        
Sep 22 16:35 Calm 10 Clear CLR 82 19     10%   79 29.68        
Sep 22 16:15 6 10 Clear CLR 82 19     10%   79 29.69        
Sep 22 15:55 SSW 6 10 Clear CLR 82 19     10%   79 29.69        
Sep 22 15:35 W 7 10 Clear CLR 82 23     11%   80 29.7        
Sep 22 15:15 Calm 10 Clear CLR 82 21     10%   80 29.71        
Sep 22 14:55 Calm 10 Clear CLR 81 19     10%   79 29.71        
Sep 22 14:35 5 10 Clear CLR 81 21     11%   79 29.72        
Sep 22 14:10 Calm 10 Clear CLR 81 21     11%   79 29.73        
Sep 22 13:55 NW 8 10 Clear CLR 81 21     11%   79 29.73        
Sep 22 13:35 Calm 10 Clear CLR 81 21     11%   79          
Sep 22 13:15 WNW 7 10 Clear CLR 81 23     12%   79 29.75        
Sep 22 12:55 5 10 Clear CLR 81 21     11%   79 29.75        
Sep 22 12:35 W 5 10 Clear CLR 79        %     29.76        
Sep 22 12:15 W 7 10 Clear CLR 79 23     13%   77 29.77        
Sep 22 11:55 Calm 10 Clear CLR 79 28     16%   77 29.77        
Sep 22 11:35 NNW 7 10 Clear   77 28     17%   75 29.77        
Sep 22 11:15 NW 11 10 Clear   77 30     18%   75 29.77        
Sep 22 10:55 NNW 13 10 Clear CLR 75 30     19%   73 29.78        
Sep 22 10:35 N 11 10 Clear CLR 75 30     19%   73 29.79        
Sep 22 10:15 NNW 14 10 Clear CLR 73 32     22%   71 29.79        
Sep 22 09:55 NNW 17 10 Clear CLR 73 32     22%   71 29.79        
Sep 22 09:35 N 13 10 Clear CLR 73 32     22%   71 29.79        
Sep 22 09:15 N 16 10 Clear CLR 72 32     23%   70 29.78        
Sep 22 08:45 N 16 10 Clear CLR 70 32     25%     29.78        
Sep 22 08:35 N 13 10 Clear CLR 70 32     25%     29.77        
Sep 22 08:15 N 14 10 Clear CLR 70 32     25%     29.77        
Sep 22 07:55 NNE 11 10 Clear CLR 68 32     26%     29.76        
Sep 22 07:35 NNE 13 10 Clear CLR 68 32     26%     29.76        
Sep 22 07:15 N 11 10 Clear CLR 68 30     24%     29.75        
Sep 22 06:55 N 11 10 Clear CLR 68 28     23%     29.75        
Sep 22 06:35 N 10 10 Clear CLR 68 27     21%     29.74        
Sep 22 06:15 N 10 10 Clear CLR 68 27     21%     29.74        
Sep 22 05:55 N 10 10 Clear CLR 68 25     19%     29.73        
Sep 22 05:35 N 9 10 Clear   68 23     18%     29.73        
Sep 22 05:15 N 5 10 Clear   68 25     19%     29.73        
Sep 22 04:55 N 5 10 Clear   68 23     18%     29.73        
Sep 22 04:35 NNW 5 10 Clear CLR 68 23     18%     29.72        
Sep 22 04:15 5 10 Clear CLR 68 21     17%     29.72        
Sep 22 03:55 Calm 10 Clear CLR 70 19     15%     29.71        
Sep 22 03:35 N 7 10 Clear CLR 70 19     15%     29.71        
Sep 22 03:15 NE 9 10 Clear CLR 70        %     29.7        
Sep 22 02:55 NE 11 10 Clear CLR 72        %     29.7        
Sep 22 02:35 NE 11 10 Clear CLR 72        %     29.69        
Sep 22 02:15   10 Clear CLR 72 19     14%   69 29.69        
Sep 22 01:55 ENE 10 10 Clear CLR 72 19     14%   69 29.69        
Sep 22 01:35 ENE 11 10 Clear CLR 73 23     15%   71 29.69        
Sep 22 01:15 ENE 13 10 Clear CLR 73 25     16%   71 29.69        
Sep 22 00:55 Calm 10 Clear CLR 73 30     20%   71 29.68        
Sep 22 00:35 SW 8 10 Clear CLR 75 25     15%   73 29.68        
Sep 22 00:15 WSW 8 10 Clear CLR 75 25     15%   73 29.68        
Sep 21 23:55 W 9 10 Clear CLR 75 28     18%   73 29.67        
Sep 21 23:35 WNW 13 10 Clear CLR 75 34     22%   73 29.67        
Sep 21 23:15 WSW 9 10 Clear CLR 75 37     25%   74 29.67        
Sep 21 22:55 W 9 10 Clear CLR 77 37     24%   76 29.66        
Sep 21 22:35 W 13 10 Clear CLR 77 39     26%   76 29.65        
Sep 21 22:15 WNW 14 10 Clear CLR 77 39     26%   76 29.65        
Sep 21 21:55 Calm 10 Clear CLR 79 41     26%   78 29.64        
Sep 21 21:35 S 9 10 Clear CLR 79 43     28%   78 29.63        
Sep 21 21:15 3 10 Clear CLR 81 43     26%   80 29.62        
Sep 21 20:55 S 14 10 Clear CLR 81 45     28%   80 29.62        
Sep 21 20:35 SSW 10 10 Clear CLR 81 45     28%   80 29.61        
Sep 21 20:15 SSW 6 10 Clear CLR 82 45     27%   81 29.6        
Sep 21 19:55 S 10 10 Clear CLR 82 45     27%   81 29.59        
Sep 21 19:35 SSW 11 10 Clear CLR 84 45     25%   82 29.58        
Sep 21 19:15 WSW 13 10 Clear CLR 84 45     25%   82 29.57        
Sep 21 18:55 W 16 10 Clear CLR 86 45     24%   83 29.56        
Sep 21 18:35 W 16 10 Clear CLR 86 45     24%   83 29.55        
Sep 21 18:15 WSW 13 10 Clear CLR 86 45     24%   83 29.55        
Sep 21 17:55 SW 16 10 Clear CLR 90 41     18%   86 29.54        
Sep 21 17:35 SW 17 10 Mostly Clear FEW110 91 39     16%   87 29.54        
Sep 21 17:15 SW 14 10 Mostly Clear FEW110 91 39     16%   87 29.54        
Notice The following observation data may not be complete
Sep 21 16:55   10 Clear CLR          %              
Sep 21 16:35 SSW 15 10 Clear CLR 93 39     15%   89 29.54        
Sep 21 16:15 SSW 20 10 Clear and Windy CLR 93 39     15%   89 29.54        
Sep 21 15:55 SW 18 10 Clear CLR 93 39     15%   89 29.54        
Sep 21 15:35 SW 17 10 Clear CLR 93 39     15%   89 29.55        
Sep 21 15:15 SSW 21 10 Clear and Windy CLR 91 39     16%   87 29.56        
Sep 21 14:55 SSW 18 10 Clear CLR 91 39     16%   87 29.57        
Sep 21 14:35 SSW 23 10 Clear and Windy CLR 91 39     16%   87 29.57        
Sep 21 14:15 SW 22 10 Clear and Windy CLR 93 39     15%   89 29.58        
Sep 21 13:55 SSW 22 10 Clear and Windy CLR 93 39     15%   89 29.59        
Sep 21 13:35 S 24 10 Clear and Windy CLR 93 39     15%   89 29.59        
Sep 21 13:15 S 21 10 Clear and Windy CLR 91 41     17%   87 29.61        
Sep 21 12:55 S 25 10 Clear and Windy CLR 91 41     17%   87 29.62        
Sep 21 12:35 SSW 20 10 Clear and Windy CLR 90 41     18%   86 29.64        
Sep 21 12:15 SSW 23 10 Clear and Windy CLR 90 41     18%   86 29.64        
Sep 21 11:55 S 17 10 Clear CLR 90 43     20%   86 29.65        
Sep 21 11:35 S 20 10 Clear and Windy CLR 88 43     21%   84 29.65        
Sep 21 11:15 S 20 10 Clear and Windy CLR 88 43     21%   84 29.66        
Sep 21 10:55 S 17 10 Clear CLR 86 45     24%   83 29.67        
Sep 21 10:35 S 18 10 Clear CLR 86 45     24%   83 29.68        
Sep 21 10:15 S 21 10 Clear and Windy CLR 86 43     22%   83 29.68        
Sep 21 09:55 S 20 10 Clear and Windy CLR 84 45     25%   82 29.69        
Jun 12 04:55 Calm 10 Clear CLR 68 30     24%     29.85        
Jun 11 22:55 SSW 14 10 Clear CLR 77 39     26%   76 29.71        
Jun 11 20:35 SSE 24 10 Clear and Windy CLR 88        %     29.6        
Jun 11 18:55   10 Clear CLR 93 28     10%   88 29.57        
Jun 11 11:15 S 16 10 Clear CLR 90        %     29.69        
Jun 11 10:35 S 21 10 Clear and Windy CLR 88 32     14%   84 29.69        
Jun 11 04:35 S 11 10 Clear CLR 79 39     24%   78 29.62        
Jun 11 01:35 S 15 10 Clear CLR 86 37     18%   83 29.58        
Jun 10 18:35   10 Clear CLR 97        %     29.53        
Jun 10 17:15 S 20 10 Clear and Windy CLR 99 36     11%   93 29.55        
Jun 10 16:55 S 18 10 Clear CLR 99 36     11%   93 29.56        
Jun 10 15:35 SSE 18 10 Clear CLR 99 34     10%   93          
Notice The following observation data may not be complete
Jun 10 14:55   10 Clear CLR          %              
Jun 10 05:35 SSE 10 10 Clear CLR 82 46     28%   81 29.67        
Jun 09 20:55   10 Clear CLR 99        %     29.57        
Jun 09 10:35 SSW 11 10 Clear CLR 95 28     9%   89 29.76        
Jun 09 04:55 Calm 10 Clear CLR 81 30     16%   79 29.75        
Jun 09 02:55 SSE 6 10 Clear CLR 82 27     13%   80 29.74        
Jun 08 21:35   10 Clear CLR 97 32     10%   91 29.69        
Jun 08 17:35 SSE 16 10 Clear CLR 104 30     8%   97 29.68        
Jun 07 18:35 S 17 10 Clear CLR 102 23     6%   95 29.7        
Jun 07 16:35 S 15 10 Clear CLR 104 19     5%   96          
Jun 07 15:55 S 21 10 Clear and Windy CLR 104 18     5%   96 29.75        
Jun 07 10:15 S 18 10 Clear CLR 93 32     11%   88 29.85        
Jun 06 12:55 SSW 16 10 Partly Cloudy SCT095 104 36     10%   98 29.79        
Jun 05 18:15 SSW 13 10 Clear CLR 108 34     8%   101          
Jun 05 16:15 SSW 21 10 Clear and Windy CLR 109 32     7%   102 29.66        
Jun 05 15:15   10 Clear CLR 108 36     9%   101          
Notice The following observation data may not be complete
Jun 05 12:55   10 Clear CLR          %